[keps] orb12334.amsat
Ray Hoad
ray.hoad at mypbmail.com
Thu Nov 29 18:26:03 PST 2012
SB KEPS @ AMSAT $ORB12334.O
Orbital Elements 12334.OSCAR
HR AMSAT ORBITAL ELEMENTS FOR OSCAR SATELLITES
FROM WA5QGD FORT WORTH,TX November 29, 2012
BID: ORB12334.O
TO ALL RADIO AMATEURS BT
Satellite: AO-07
Catalog number: 07530
Epoch time: 12333.54450481
Element set: 0542
Inclination: 101.4147 deg
RA of node: 324.4785 deg
Eccentricity: 0.0011807
Arg of perigee: 321.4987 deg
Mean anomaly: 038.5244 deg
Mean motion: 12.53593095 rev/day
Decay rate: -2.7e-07 rev/day^2
Epoch rev: 74064
Checksum: 288
Satellite: FO-29
Catalog number: 24278
Epoch time: 12333.79699546
Element set: 0986
Inclination: 098.5848 deg
RA of node: 052.9133 deg
Eccentricity: 0.0350333
Arg of perigee: 323.3689 deg
Mean anomaly: 034.3951 deg
Mean motion: 13.52992832 rev/day
Decay rate: 8.0e-08 rev/day^2
Epoch rev: 80421
Checksum: 344
Satellite: SO-33
Catalog number: 25509
Epoch time: 12333.60026749
Element set: 0378
Inclination: 031.4299 deg
RA of node: 123.1785 deg
Eccentricity: 0.0352262
Arg of perigee: 202.1721 deg
Mean anomaly: 156.3305 deg
Mean motion: 14.28919926 rev/day
Decay rate: 7.17e-06 rev/day^2
Epoch rev: 73618
Checksum: 305
Satellite: RS-22
Catalog number: 27939
Epoch time: 12334.04125054
Element set: 947
Inclination: 097.7988 deg
RA of node: 166.3322 deg
Eccentricity: 0.0014358
Arg of perigee: 100.8590 deg
Mean anomaly: 259.4229 deg
Mean motion: 14.64243347 rev/day
Decay rate: 6.17e-06 rev/day^2
Epoch rev: 49000
Checksum: 311
Satellite: VO-52
Catalog number: 28650
Epoch time: 12333.46635930
Element set: 274
Inclination: 097.5829 deg
RA of node: 356.2924 deg
Eccentricity: 0.0025215
Arg of perigee: 219.3432 deg
Mean anomaly: 140.5931 deg
Mean motion: 14.83414108 rev/day
Decay rate: 1.597e-05 rev/day^2
Epoch rev: 40932
Checksum: 305
Satellite: HO-68
Catalog number: 36122
Epoch time: 12334.07530531
Element set: 52
Inclination: 100.3401 deg
RA of node: 029.9331 deg
Eccentricity: 0.0007898
Arg of perigee: 092.1111 deg
Mean anomaly: 268.0902 deg
Mean motion: 13.16300191 rev/day
Decay rate: -4.4e-07 rev/day^2
Epoch rev: 14208
Checksum: 242
/EX
SB KEPS @ AMSAT $ORB12334.D
Orbital Elements 12334.MICROS
HR AMSAT ORBITAL ELEMENTS FOR THE MICROSATS
FROM WA5QGD FORT WORTH,TX November 29, 2012
BID: ORB12334.D
TO ALL RADIO AMATEURS BT
Satellite: UO-11
Catalog number: 14781
Epoch time: 12333.68623832
Element set: 0001
Inclination: 097.9324 deg
RA of node: 031.5906 deg
Eccentricity: 0.0008473
Arg of perigee: 211.3195 deg
Mean anomaly: 148.7513 deg
Mean motion: 14.80677276 rev/day
Decay rate: 4.66e-06 rev/day^2
Epoch rev: 52326
Checksum: 297
Satellite: AO-16
Catalog number: 20439
Epoch time: 12333.48795325
Element set: 615
Inclination: 098.4477 deg
RA of node: 272.4029 deg
Eccentricity: 0.0011686
Arg of perigee: 036.1871 deg
Mean anomaly: 324.0099 deg
Mean motion: 14.32117100 rev/day
Decay rate: 2.57e-06 rev/day^2
Epoch rev: 19351
Checksum: 295
Satellite: LO-19
Catalog number: 20442
Epoch time: 12334.11491525
Element set: 547
Inclination: 098.4164 deg
RA of node: 275.4556 deg
Eccentricity: 0.0012368
Arg of perigee: 026.2616 deg
Mean anomaly: 333.9195 deg
Mean motion: 14.32331718 rev/day
Decay rate: 1.69e-06 rev/day^2
Epoch rev: 19379
Checksum: 309
Satellite: AO-27
Catalog number: 22825
Epoch time: 12333.87454688
Element set: 253
Inclination: 098.5933 deg
RA of node: 274.2688 deg
Eccentricity: 0.0008605
Arg of perigee: 150.7894 deg
Mean anomaly: 209.3763 deg
Mean motion: 14.29514352 rev/day
Decay rate: 1.97e-06 rev/day^2
Epoch rev: 1
Checksum: 321
Satellite: IO-26
Catalog number: 22826
Epoch time: 12334.05361008
Element set: 8
Inclination: 098.5870 deg
RA of node: 274.7748 deg
Eccentricity: 0.0009226
Arg of perigee: 144.3706 deg
Mean anomaly: 215.8091 deg
Mean motion: 14.29793479 rev/day
Decay rate: 1.84e-06 rev/day^2
Epoch rev: 16
Checksum: 303
Satellite: GO-32
Catalog number: 25397
Epoch time: 12333.61783082
Element set: 0935
Inclination: 098.3849 deg
RA of node: 304.4162 deg
Eccentricity: 0.0001770
Arg of perigee: 132.2064 deg
Mean anomaly: 227.9267 deg
Mean motion: 14.23309542 rev/day
Decay rate: 4.3e-07 rev/day^2
Epoch rev: 74741
Checksum: 298
Satellite: NO-44
Catalog number: 26931
Epoch time: 12333.35184287
Element set: 196
Inclination: 067.0528 deg
RA of node: 057.2145 deg
Eccentricity: 0.0004927
Arg of perigee: 258.0238 deg
Mean anomaly: 102.0298 deg
Mean motion: 14.29863349 rev/day
Decay rate: -1.39e-06 rev/day^2
Epoch rev: 58271
Checksum: 315
Satellite: SO-50
Catalog number: 27607
Epoch time: 12333.99930891
Element set: 926
Inclination: 064.5547 deg
RA of node: 153.4586 deg
Eccentricity: 0.0070255
Arg of perigee: 214.8478 deg
Mean anomaly: 144.8010 deg
Mean motion: 14.72658426 rev/day
Decay rate: 6.82e-06 rev/day^2
Epoch rev: 53423
Checksum: 326
Satellite: CO-55
Catalog number: 27844
Epoch time: 12333.53847922
Element set: 0518
Inclination: 098.7028 deg
RA of node: 339.5359 deg
Eccentricity: 0.0010366
Arg of perigee: 105.8997 deg
Mean anomaly: 254.3329 deg
Mean motion: 14.21123191 rev/day
Decay rate: 3.83e-06 rev/day^2
Epoch rev: 48823
Checksum: 329
Satellite: CO-57
Catalog number: 27848
Epoch time: 12333.50107844
Element set: 0468
Inclination: 098.7103 deg
RA of node: 338.9092 deg
Eccentricity: 0.0010369
Arg of perigee: 111.8494 deg
Mean anomaly: 248.3784 deg
Mean motion: 14.20861482 rev/day
Decay rate: 3.01e-06 rev/day^2
Epoch rev: 48816
Checksum: 322
Satellite: AO-51
Catalog number: 28375
Epoch time: 12333.50757608
Element set: 0426
Inclination: 098.1709 deg
RA of node: 291.3479 deg
Eccentricity: 0.0082688
Arg of perigee: 263.8838 deg
Mean anomaly: 095.2954 deg
Mean motion: 14.41039713 rev/day
Decay rate: 3.54e-06 rev/day^2
Epoch rev: 44243
Checksum: 338
Satellite: CP3
Catalog number: 31129
Epoch time: 12333.50702818
Element set: 324
Inclination: 097.8866 deg
RA of node: 331.6604 deg
Eccentricity: 0.0100363
Arg of perigee: 332.6846 deg
Mean anomaly: 026.9085 deg
Mean motion: 14.53364123 rev/day
Decay rate: 1.376e-05 rev/day^2
Epoch rev: 29784
Checksum: 300
Satellite: CO-65
Catalog number: 32785
Epoch time: 12334.19370513
Element set: 481
Inclination: 097.7807 deg
RA of node: 031.1888 deg
Eccentricity: 0.0013315
Arg of perigee: 240.5697 deg
Mean anomaly: 119.4198 deg
Mean motion: 14.83429428 rev/day
Decay rate: 1.457e-05 rev/day^2
Epoch rev: 24822
Checksum: 326
Satellite: PRISM
Catalog number: 33493
Epoch time: 12334.01528711
Element set: 300
Inclination: 098.1914 deg
RA of node: 118.8445 deg
Eccentricity: 0.0019284
Arg of perigee: 121.6398 deg
Mean anomaly: 238.6613 deg
Mean motion: 14.84911911 rev/day
Decay rate: 4.404e-05 rev/day^2
Epoch rev: 20820
Checksum: 280
Satellite: SOHLA-1
Catalog number: 33496
Epoch time: 12333.89266267
Element set: 0899
Inclination: 098.1188 deg
RA of node: 084.6894 deg
Eccentricity: 0.0005575
Arg of perigee: 235.2580 deg
Mean anomaly: 124.8101 deg
Mean motion: 14.70131487 rev/day
Decay rate: 4.77e-06 rev/day^2
Epoch rev: 20644
Checksum: 328
Satellite: SO-67
Catalog number: 35870
Epoch time: 12334.06162733
Element set: 555
Inclination: 097.2154 deg
RA of node: 003.9862 deg
Eccentricity: 0.0001682
Arg of perigee: 005.0080 deg
Mean anomaly: 078.9115 deg
Mean motion: 15.25343328 rev/day
Decay rate: 5.808e-05 rev/day^2
Epoch rev: 17773
Checksum: 300
Satellite: TISAT-1
Catalog number: 36799
Epoch time: 12334.05656258
Element set: 572
Inclination: 098.0509 deg
RA of node: 051.5426 deg
Eccentricity: 0.0014672
Arg of perigee: 003.2747 deg
Mean anomaly: 356.8508 deg
Mean motion: 14.82616187 rev/day
Decay rate: 2.642e-05 rev/day^2
Epoch rev: 12891
Checksum: 319
Satellite: STUDSAT
Catalog number: 36801
Epoch time: 12333.26787034
Element set: 531
Inclination: 098.0596 deg
RA of node: 052.3338 deg
Eccentricity: 0.0011792
Arg of perigee: 349.5580 deg
Mean anomaly: 010.5360 deg
Mean motion: 14.86186954 rev/day
Decay rate: 9.094e-05 rev/day^2
Epoch rev: 12887
Checksum: 314
Satellite: FO-69
Catalog number: 37227
Epoch time: 12324.39082420
Element set: 0341
Inclination: 071.9700 deg
RA of node: 329.4329 deg
Eccentricity: 0.0015671
Arg of perigee: 026.5333 deg
Mean anomaly: 333.6607 deg
Mean motion: 14.77273675 rev/day
Decay rate: 9.49e-06 rev/day^2
Epoch rev: 05901
Checksum: 306
Satellite: FO-70
Catalog number: 37380
Epoch time: 12324.35497821
Element set: 0345
Inclination: 071.9737 deg
RA of node: 330.2673 deg
Eccentricity: 0.0016487
Arg of perigee: 023.0914 deg
Mean anomaly: 337.0959 deg
Mean motion: 14.77019282 rev/day
Decay rate: 9.12e-06 rev/day^2
Epoch rev: 05889
Checksum: 323
Satellite: ALMASAT-1
Catalog number: 38078
Epoch time: 12334.08416158
Element set: 776
Inclination: 069.4771 deg
RA of node: 302.0576 deg
Eccentricity: 0.0730165
Arg of perigee: 041.1824 deg
Mean anomaly: 324.1948 deg
Mean motion: 14.15848555 rev/day
Decay rate: 2.5302e-04 rev/day^2
Epoch rev: 4083
Checksum: 304
Satellite: XATCOBEO
Catalog number: 38082
Epoch time: 12334.06433067
Element set: 731
Inclination: 069.4822 deg
RA of node: 293.7849 deg
Eccentricity: 0.0668578
Arg of perigee: 036.5830 deg
Mean anomaly: 327.8339 deg
Mean motion: 14.32298863 rev/day
Decay rate: 6.9125e-04 rev/day^2
Epoch rev: 4105
Checksum: 333
/EX
SB KEPS @ AMSAT $ORB12334.W
Orbital Elements 12334.WEATHER
HR AMSAT ORBITAL ELEMENTS FOR WEATHER SATELLITES
FROM WA5QGD FORT WORTH,TX November 29, 2012
BID: ORB12334.W
TO ALL RADIO AMATEURS BT
Satellite: NOAA-10
Catalog number: 16969
Epoch time: 12333.51839442
Element set: 150
Inclination: 098.5666 deg
RA of node: 359.5268 deg
Eccentricity: 0.0013087
Arg of perigee: 112.0317 deg
Mean anomaly: 248.2258 deg
Mean motion: 14.27599339 rev/day
Decay rate: 2.49e-06 rev/day^2
Epoch rev: 36331
Checksum: 322
Satellite: NOAA-11
Catalog number: 19531
Epoch time: 12333.26731613
Element set: 145
Inclination: 098.7257 deg
RA of node: 054.9121 deg
Eccentricity: 0.0011911
Arg of perigee: 113.3249 deg
Mean anomaly: 246.9163 deg
Mean motion: 14.14994024 rev/day
Decay rate: 1.57e-06 rev/day^2
Epoch rev: 24771
Checksum: 281
